Location: Pilipovskiye Korichintsy
(49.1833°N, 27.4667°E)
Time: 12:35:16
(UTC+00:00)

Cosmos 1900 - Pass Details

Date: 14 July 2020
Orbit: 682 x 740 km, 66.1° (Epoch: 08 August)

Event Time Altitude Azimuth Distance (km) Brightness Sun altitude
Exits shadow 00:50:31 15° 205° (SSW) 1,828 5.8 -11.3°
Maximum altitude 00:54:32 71° 123° (ESE) 747 4.5 -10.9°
Drops below altitude 10° 00:59:31 10° 40° (NE) 2,198 8.5 -10.4°
Sets 01:01:54 0° 39° (NE) 3,131 10.0 -10.2°
